| time (UTC) | temp F | wind direction | speed MPH | gust MPH | rain 1hr in | rain 24hr in | rain mn in | humidity % | barometer mb |
| 20260904034643 | 56 | 219 | 0.0 | 1.0 | 0.00 | 0.00 | 0.00 | 32 | 1019.4 |
| 20260904034141 | 56 | 217 | 0.0 | 1.0 | 0.00 | 0.00 | 0.00 | 33 | 1019.3 |
| 20260904033639 | 55 | 243 | 0.0 | 1.0 | 0.00 | 0.00 | 0.00 | 36 | 1019.4 |
| 20260904033157 | 54 | 242 | 0.0 | 0.0 | 0.00 | 0.00 | 0.00 | 39 | 1019.3 |
| 20260904032633 | 54 | 242 | 0.0 | 0.0 | 0.00 | 0.00 | 0.00 | 42 | 1019.3 |
| 20260904032131 | 54 | 242 | 0.0 | 0.0 | 0.00 | 0.00 | 0.00 | 48 | 1019.3 |
| 20260904031649 | 55 | 242 | 0.0 | 0.0 | 0.00 | 0.00 | 0.00 | 52 | 1019.3 |
| 20260904031126 | 55 | 242 | 0.0 | 1.0 | 0.00 | 0.00 | 0.00 | 51 | 1019.3 |
| 20260904030643 | 56 | 242 | 0.0 | 1.0 | 0.00 | 0.00 | 0.00 | 50 | 1019.3 |
| 20260904030201 | 56 | 242 | 0.0 | 1.0 | 0.00 | 0.00 | 0.00 | 43 | 1019.3 |
| 20260904025639 | 57 | 242 | 0.0 | 1.0 | 0.00 | 0.00 | 0.00 | 41 | 1019.2 |
| 20260904025158 | 56 | 242 | 0.0 | 1.0 | 0.00 | 0.00 | 0.00 | 43 | 1019.1 |
| 20260904024634 | 56 | 245 | 0.0 | 1.0 | 0.00 | 0.00 | 0.00 | 45 | 1019.1 |
| 20260904024153 | 56 | 243 | 0.0 | 1.0 | 0.00 | 0.00 | 0.00 | 47 | 1019.2 |
| 20260904023630 | 56 | 243 | 0.0 | 1.0 | 0.00 | 0.00 | 0.00 | 47 | 1019.1 |
| 20260904023148 | 56 | 243 | 0.0 | 0.0 | 0.00 | 0.00 | 0.00 | 47 | 1019.2 |
| 20260904022705 | 57 | 243 | 0.0 | 0.0 | 0.00 | 0.00 | 0.00 | 46 | 1019.2 |
| 20260904022126 | 57 | 243 | 0.0 | 0.0 | 0.00 | 0.00 | 0.00 | 45 | 1019.2 |
| 20260904021644 | 57 | 243 | 0.0 | 0.0 | 0.00 | 0.00 | 0.00 | 45 | 1019.2 |
| 20260904021136 | 58 | 243 | 0.0 | 0.0 | 0.00 | 0.00 | 0.00 | 44 | 1019.2 |
| 20260904020636 | 59 | 243 | 0.0 | 1.0 | 0.00 | 0.00 | 0.00 | 44 | 1019.2 |
| 20260904020154 | 59 | 243 | 0.0 | 1.0 | 0.00 | 0.00 | 0.00 | 43 | 1019.3 |
| 20260904015632 | 59 | 243 | 0.0 | 1.0 | 0.00 | 0.00 | 0.00 | 41 | 1019.3 |
| 20260904015130 | 60 | 168 | 0.0 | 2.0 | 0.00 | 0.00 | 0.00 | 41 | 1019.3 |
| 20260904014627 | 60 | 167 | 0.0 | 2.0 | 0.00 | 0.00 | 0.00 | 40 | 1019.3 |
| 20260904014126 | 61 | 193 | 0.0 | 1.0 | 0.00 | 0.00 | 0.00 | 40 | 1019.3 |
| 20260904013643 | 61 | 279 | 0.0 | 1.0 | 0.00 | 0.00 | 0.00 | 39 | 1019.3 |
| 20260904013141 | 61 | 247 | 0.0 | 1.0 | 0.00 | 0.00 | 0.00 | 39 | 1019.3 |
| 20260904012638 | 62 | 296 | 0.0 | 1.0 | 0.00 | 0.00 | 0.00 | 38 | 1019.3 |
| 20260904012156 | 62 | 250 | 0.0 | 2.0 | 0.00 | 0.00 | 0.00 | 37 | 1019.3 |
| 20260904011635 | 62 | 289 | 0.0 | 1.0 | 0.00 | 0.00 | 0.00 | 34 | 1019.3 |
| 20260904011133 | 62 | 148 | 0.0 | 2.0 | 0.00 | 0.00 | 0.00 | 35 | 1019.4 |
| 20260904010630 | 63 | 259 | 0.0 | 3.0 | 0.00 | 0.00 | 0.00 | 36 | 1019.4 |
| 20260904010128 | 63 | 198 | 0.0 | 3.0 | 0.00 | 0.00 | 0.00 | 35 | 1019.5 |
| 20260904005631 | 64 | 214 | 0.0 | 2.0 | 0.00 | 0.00 | 0.00 | 35 | 1019.4 |
| 20260904005129 | 64 | 224 | 0.0 | 4.0 | 0.00 | 0.00 | 0.00 | 34 | 1019.5 |
| 20260904004628 | 64 | 210 | 1.0 | 4.0 | 0.00 | 0.00 | 0.00 | 33 | 1019.5 |
| 20260904004126 | 65 | 258 | 0.0 | 3.0 | 0.00 | 0.00 | 0.00 | 33 | 1019.5 |
| 20260904003644 | 65 | 266 | 1.0 | 3.0 | 0.00 | 0.00 | 0.00 | 32 | 1019.6 |
| 20260904003141 | 65 | 210 | 1.0 | 3.0 | 0.00 | 0.00 | 0.00 | 31 | 1019.6 |
| 20260904002639 | 66 | 251 | 0.0 | 1.0 | 0.00 | 0.00 | 0.00 | 31 | 1019.7 |
| 20260904002137 | 66 | 256 | 0.0 | 2.0 | 0.00 | 0.00 | 0.00 | 30 | 1019.7 |
| 20260904001655 | 66 | 284 | 0.0 | 2.0 | 0.00 | 0.00 | 0.00 | 29 | 1019.7 |
| 20260904001153 | 66 | 310 | 1.0 | 2.0 | 0.00 | 0.00 | 0.00 | 29 | 1019.8 |
| 20260904000650 | 67 | 270 | 0.0 | 3.0 | 0.00 | 0.00 | 0.00 | 27 | 1019.8 |
| 20260904000126 | 67 | 214 | 1.0 | 3.0 | 0.00 | 0.00 | 0.00 | 27 | 1019.8 |
| 20260903235646 | 67 | 258 | 0.0 | 2.0 | 0.00 | 0.00 | 0.00 | 26 | 1019.9 |
| 20260903235204 | 68 | 229 | 1.0 | 5.0 | 0.00 | 0.00 | 0.00 | 27 | 1019.9 |
| 20260903234640 | 67 | 275 | 0.0 | 5.0 | 0.00 | 0.00 | 0.00 | 27 | 1019.9 |
| 20260903234139 | 68 | 128 | 1.0 | 4.0 | 0.00 | 0.00 | 0.00 | 26 | 1020.0 |
| 20260903233656 | 68 | 294 | 1.0 | 4.0 | 0.00 | 0.00 | 0.00 | 26 | 1019.9 |
| 20260903233133 | 68 | 254 | 0.0 | 3.0 | 0.00 | 0.00 | 0.00 | 25 | 1020.0 |
| 20260903232631 | 68 | 252 | 1.0 | 5.0 | 0.00 | 0.00 | 0.00 | 27 | 1020.1 |
| 20260903232129 | 68 | 259 | 1.0 | 6.0 | 0.00 | 0.00 | 0.00 | 27 | 1020.1 |
| 20260903231631 | 68 | 250 | 1.0 | 6.0 | 0.00 | 0.00 | 0.00 | 26 | 1020.1 |
| 20260903231129 | 69 | 278 | 1.0 | 5.0 | 0.00 | 0.00 | 0.00 | 25 | 1020.2 |
| 20260903230628 | 69 | 293 | 0.0 | 2.0 | 0.00 | 0.00 | 0.00 | 27 | 1020.1 |
| 20260903230202 | 69 | 44 | 0.0 | 6.0 | 0.00 | 0.00 | 0.00 | 26 | 1020.2 |
| 20260903225638 | 70 | 267 | 1.0 | 6.0 | 0.00 | 0.00 | 0.00 | 26 | 1020.3 |
| 20260903225136 | 70 | 295 | 0.0 | 6.0 | 0.00 | 0.00 | 0.00 | 25 | 1020.3 |
| 20260903224634 | 71 | 250 | 0.0 | 5.0 | 0.00 | 0.00 | 0.00 | 25 | 1020.3 |
| 20260903224132 | 71 | 108 | 1.0 | 4.0 | 0.00 | 0.00 | 0.00 | 24 | 1020.3 |
| 20260903223630 | 71 | 148 | 1.0 | 4.0 | 0.00 | 0.00 | 0.00 | 24 | 1020.3 |
| 20260903223144 | 71 | 235 | 1.0 | 4.0 | 0.00 | 0.00 | 0.00 | 24 | 1020.4 |
| 20260903222641 | 71 | 257 | 0.0 | 4.0 | 0.00 | 0.00 | 0.00 | 23 | 1020.4 |
| 20260903222139 | 71 | 266 | 1.0 | 3.0 | 0.00 | 0.00 | 0.00 | 22 | 1020.4 |
| 20260903221636 | 71 | 290 | 1.0 | 4.0 | 0.00 | 0.00 | 0.00 | 21 | 1020.4 |
| 20260903221155 | 71 | 259 | 1.0 | 4.0 | 0.00 | 0.00 | 0.00 | 22 | 1020.4 |
| 20260903220629 | 72 | 65 | 1.0 | 4.0 | 0.00 | 0.00 | 0.00 | 21 | 1020.6 |
| 20260903220127 | 72 | 333 | 0.0 | 3.0 | 0.00 | 0.00 | 0.00 | 21 | 1020.6 |
| 20260903215706 | 72 | 65 | 1.0 | 4.0 | 0.00 | 0.00 | 0.00 | 21 | 1020.6 |
| 20260903215141 | 72 | 295 | 1.0 | 4.0 | 0.00 | 0.00 | 0.00 | 20 | 1020.7 |
| 20260903214659 | 72 | 271 | 0.0 | 4.0 | 0.00 | 0.00 | 0.00 | 21 | 1020.7 |
| 20260903214135 | 73 | 224 | 1.0 | 4.0 | 0.00 | 0.00 | 0.00 | 20 | 1020.7 |
| 20260903213638 | 73 | 39 | 0.0 | 5.0 | 0.00 | 0.00 | 0.00 | 21 | 1020.8 |
| 20260903213134 | 73 | 168 | 1.0 | 5.0 | 0.00 | 0.00 | 0.00 | 21 | 1020.8 |
| 20260903212650 | 72 | 179 | 1.0 | 6.0 | 0.00 | 0.00 | 0.00 | 21 | 1020.7 |
| 20260903211646 | 73 | 247 | 2.0 | 4.0 | 0.00 | 0.00 | 0.00 | 22 | 1020.8 |
| 20260903211143 | 74 | 30 | 1.0 | 5.0 | 0.00 | 0.00 | 0.00 | 21 | 1020.8 |
| 20260903210640 | 74 | 247 | 1.0 | 5.0 | 0.00 | 0.00 | 0.00 | 20 | 1020.8 |
| 20260903210138 | 74 | 243 | 1.0 | 3.0 | 0.00 | 0.00 | 0.00 | 21 | 1020.8 |
| 20260903205638 | 74 | 283 | 1.0 | 7.0 | 0.00 | 0.00 | 0.00 | 20 | 1020.8 |
| 20260903205137 | 74 | 205 | 1.0 | 7.0 | 0.00 | 0.00 | 0.00 | 21 | 1020.8 |
| 20260903204635 | 74 | 244 | 1.0 | 6.0 | 0.00 | 0.00 | 0.00 | 21 | 1020.8 |
| 20260903204132 | 73 | 136 | 2.0 | 6.0 | 0.00 | 0.00 | 0.00 | 22 | 1020.8 |
| 20260903203630 | 73 | 285 | 1.0 | 5.0 | 0.00 | 0.00 | 0.00 | 20 | 1020.8 |
| 20260903203208 | 73 | 243 | 1.0 | 7.0 | 0.00 | 0.00 | 0.00 | 21 | 1020.7 |
| 20260903202705 | 73 | 253 | 1.0 | 7.0 | 0.00 | 0.00 | 0.00 | 21 | 1020.7 |
| 20260903202203 | 73 | 283 | 1.0 | 3.0 | 0.00 | 0.00 | 0.00 | 22 | 1020.8 |
| 20260903201640 | 73 | 238 | 0.0 | 4.0 | 0.00 | 0.00 | 0.00 | 23 | 1020.8 |
| 20260903201138 | 73 | 283 | 1.0 | 4.0 | 0.00 | 0.00 | 0.00 | 21 | 1020.8 |
| 20260903200635 | 73 | 193 | 1.0 | 4.0 | 0.00 | 0.00 | 0.00 | 22 | 1020.9 |
| 20260903200137 | 72 | 266 | 1.0 | 5.0 | 0.00 | 0.00 | 0.00 | 23 | 1020.9 |
| 20260903195636 | 72 | 283 | 1.0 | 5.0 | 0.00 | 0.00 | 0.00 | 24 | 1020.9 |
| 20260903195134 | 73 | 263 | 1.0 | 3.0 | 0.00 | 0.00 | 0.00 | 22 | 1021.0 |
| 20260903194633 | 73 | 252 | 1.0 | 3.0 | 0.00 | 0.00 | 0.00 | 22 | 1021.0 |
| 20260903194152 | 73 | 171 | 1.0 | 4.0 | 0.00 | 0.00 | 0.00 | 22 | 1021.0 |
| 20260903193629 | 72 | 259 | 1.0 | 6.0 | 0.00 | 0.00 | 0.00 | 23 | 1021.0 |
| 20260903193147 | 72 | 214 | 2.0 | 6.0 | 0.00 | 0.00 | 0.00 | 22 | 1021.0 |
| 20260903192645 | 72 | 302 | 2.0 | 4.0 | 0.00 | 0.00 | 0.00 | 22 | 1021.1 |
| 20260903192143 | 72 | 240 | 1.0 | 5.0 | 0.00 | 0.00 | 0.00 | 22 | 1021.2 |
| 20260903191641 | 71 | 245 | 1.0 | 5.0 | 0.00 | 0.00 | 0.00 | 22 | 1021.2 |
| 20260903191140 | 72 | 296 | 1.0 | 4.0 | 0.00 | 0.00 | 0.00 | 21 | 1021.2 |
| 20260903190658 | 72 | 94 | 1.0 | 5.0 | 0.00 | 0.00 | 0.00 | 21 | 1021.4 |
| 20260903190134 | 72 | 234 | 1.0 | 5.0 | 0.00 | 0.00 | 0.00 | 21 | 1021.4 |
| 20260903185633 | 72 | 296 | 1.0 | 2.0 | 0.00 | 0.00 | 0.00 | 21 | 1021.4 |
| 20260903185131 | 73 | 326 | 1.0 | 3.0 | 0.00 | 0.00 | 0.00 | 21 | 1021.5 |
| 20260903184628 | 72 | 174 | 1.0 | 3.0 | 0.00 | 0.00 | 0.00 | 21 | 1021.5 |
| 20260903184131 | 72 | 265 | 1.0 | 3.0 | 0.00 | 0.00 | 0.00 | 21 | 1021.5 |
| 20260903183646 | 72 | 271 | 1.0 | 4.0 | 0.00 | 0.00 | 0.00 | 20 | 1021.5 |
| 20260903183144 | 72 | 200 | 1.0 | 4.0 | 0.00 | 0.00 | 0.00 | 21 | 1021.6 |
| 20260903182641 | 72 | 262 | 1.0 | 3.0 | 0.00 | 0.00 | 0.00 | 20 | 1021.6 |
| 20260903182159 | 72 | 228 | 1.0 | 3.0 | 0.00 | 0.00 | 0.00 | 20 | 1021.6 |
| 20260903181636 | 73 | 183 | 1.0 | 3.0 | 0.00 | 0.00 | 0.00 | 20 | 1021.6 |
| 20260903181134 | 73 | 63 | 1.0 | 2.0 | 0.00 | 0.00 | 0.00 | 21 | 1021.6 |
| 20260903180632 | 73 | 267 | 0.0 | 2.0 | 0.00 | 0.00 | 0.00 | 21 | 1021.6 |
| 20260903180130 | 72 | 307 | 1.0 | 4.0 | 0.00 | 0.00 | 0.00 | 21 | 1021.5 |
| 20260903175628 | 72 | 74 | 1.0 | 4.0 | 0.00 | 0.00 | 0.00 | 22 | 1021.6 |
| 20260903175146 | 71 | 288 | 1.0 | 4.0 | 0.00 | 0.00 | 0.00 | 22 | 1021.6 |
| 20260903174644 | 71 | 254 | 1.0 | 4.0 | 0.00 | 0.00 | 0.00 | 21 | 1021.4 |
| 20260903174204 | 71 | 29 | 1.0 | 4.0 | 0.00 | 0.00 | 0.00 | 21 | 1021.4 |
| 20260903173640 | 71 | 20 | 0.0 | 4.0 | 0.00 | 0.00 | 0.00 | 22 | 1021.5 |
| 20260903173138 | 70 | 131 | 1.0 | 4.0 | 0.00 | 0.00 | 0.00 | 22 | 1021.5 |
| 20260903172636 | 70 | 288 | 1.0 | 3.0 | 0.00 | 0.00 | 0.00 | 22 | 1021.4 |
| 20260903172134 | 70 | 255 | 1.0 | 3.0 | 0.00 | 0.00 | 0.00 | 22 | 1021.4 |
| 20260903171636 | 70 | 303 | 1.0 | 3.0 | 0.00 | 0.00 | 0.00 | 21 | 1021.3 |
| 20260903171133 | 70 | 176 | 1.0 | 9.0 | 0.00 | 0.00 | 0.00 | 23 | 1021.3 |
| 20260903170631 | 70 | 236 | 1.0 | 9.0 | 0.00 | 0.00 | 0.00 | 22 | 1021.2 |
| 20260903170210 | 69 | 233 | 0.0 | 6.0 | 0.00 | 0.00 | 0.00 | 22 | 1021.2 |
| 20260903165708 | 69 | 247 | 1.0 | 6.0 | 0.00 | 0.00 | 0.00 | 23 | 1021.2 |
| 20260903165205 | 68 | 278 | 1.0 | 3.0 | 0.00 | 0.00 | 0.00 | 24 | 1021.1 |
| 20260903164640 | 68 | 217 | 0.0 | 4.0 | 0.00 | 0.00 | 0.00 | 23 | 1021.1 |
| 20260903164155 | 68 | 274 | 1.0 | 4.0 | 0.00 | 0.00 | 0.00 | 23 | 1021.0 |
| 20260903163632 | 68 | 299 | 1.0 | 3.0 | 0.00 | 0.00 | 0.00 | 23 | 1021.1 |
| 20260903163130 | 67 | 219 | 1.0 | 4.0 | 0.00 | 0.00 | 0.00 | 24 | 1021.1 |
| 20260903162708 | 67 | 269 | 1.0 | 4.0 | 0.00 | 0.00 | 0.00 | 23 | 1021.0 |
| 20260903162144 | 67 | 259 | 1.0 | 3.0 | 0.00 | 0.00 | 0.00 | 23 | 1021.2 |
| 20260903161642 | 67 | 153 | 1.0 | 3.0 | 0.00 | 0.00 | 0.00 | 23 | 1021.1 |
| 20260903161139 | 66 | 241 | 0.0 | 3.0 | 0.00 | 0.00 | 0.00 | 24 | 1021.1 |
| 20260903160657 | 66 | 229 | 0.0 | 2.0 | 0.00 | 0.00 | 0.00 | 23 | 1021.1 |
| 20260903160154 | 66 | 285 | 0.0 | 2.0 | 0.00 | 0.00 | 0.00 | 23 | 1021.1 |
| 20260903155630 | 65 | 291 | 0.0 | 3.0 | 0.00 | 0.00 | 0.00 | 24 | 1021.1 |
| 20260903155148 | 65 | 155 | 1.0 | 3.0 | 0.00 | 0.00 | 0.00 | 24 | 1021.2 |
| 20260903154646 | 64 | 48 | 1.0 | 2.0 | 0.00 | 0.00 | 0.00 | 24 | 1021.1 |
| 20260903154204 | 64 | 297 | 0.0 | 2.0 | 0.00 | 0.00 | 0.00 | 24 | 1021.1 |
| 20260903153640 | 64 | 276 | 1.0 | 2.0 | 0.00 | 0.00 | 0.00 | 24 | 1021.1 |
| 20260903153139 | 63 | 169 | 0.0 | 1.0 | 0.00 | 0.00 | 0.00 | 24 | 1021.1 |
| 20260903152636 | 63 | 338 | 0.0 | 2.0 | 0.00 | 0.00 | 0.00 | 24 | 1021.0 |
| 20260903152135 | 62 | 274 | 0.0 | 2.0 | 0.00 | 0.00 | 0.00 | 24 | 1021.0 |
| 20260903151637 | 62 | 12 | 0.0 | 2.0 | 0.00 | 0.00 | 0.00 | 25 | 1021.0 |
| 20260903151155 | 61 | 237 | 1.0 | 2.0 | 0.00 | 0.00 | 0.00 | 26 | 1021.0 |
| 20260903150632 | 61 | 295 | 0.0 | 2.0 | 0.00 | 0.00 | 0.00 | 25 | 1021.0 |
| 20260903150210 | 60 | 278 | 1.0 | 1.0 | 0.00 | 0.00 | 0.00 | 25 | 1021.0 |
| 20260903145648 | 59 | 121 | 0.0 | 1.0 | 0.00 | 0.00 | 0.00 | 25 | 1021.0 |
| 20260903145147 | 58 | 42 | 0.0 | 1.0 | 0.00 | 0.00 | 0.00 | 25 | 1020.9 |
| 20260903144704 | 58 | 60 | 0.0 | 1.0 | 0.00 | 0.00 | 0.00 | 24 | 1020.9 |
| 20260903144141 | 57 | 357 | 0.0 | 1.0 | 0.00 | 0.00 | 0.00 | 25 | 1020.8 |
| 20260903143639 | 57 | 45 | 0.0 | 1.0 | 0.00 | 0.00 | 0.00 | 25 | 1020.7 |
| 20260903143137 | 56 | 11 | 0.0 | 1.0 | 0.00 | 0.00 | 0.00 | 25 | 1020.7 |
| 20260903142632 | 55 | 250 | 0.0 | 1.0 | 0.00 | 0.00 | 0.00 | 25 | 1020.6 |
| 20260903142130 | 54 | 252 | 0.0 | 1.0 | 0.00 | 0.00 | 0.00 | 24 | 1020.6 |
| 20260903141648 | 54 | 250 | 0.0 | 1.0 | 0.00 | 0.00 | 0.00 | 24 | 1020.6 |
| 20260903141206 | 54 | 158 | 0.0 | 1.0 | 0.00 | 0.00 | 0.00 | 22 | 1020.5 |
| 20260903140643 | 53 | 243 | 0.0 | 1.0 | 0.00 | 0.00 | 0.00 | 22 | 1020.5 |
| 20260903140141 | 53 | 250 | 0.0 | 1.0 | 0.00 | 0.00 | 0.00 | 21 | 1020.5 |
| 20260903135640 | 53 | 250 | 0.0 | 1.0 | 0.00 | 0.00 | 0.00 | 20 | 1020.4 |
| 20260903135157 | 52 | 250 | 0.0 | 1.0 | 0.00 | 0.00 | 0.00 | 19 | 1020.4 |
| 20260903134634 | 52 | 250 | 0.0 | 1.0 | 0.00 | 0.00 | 0.00 | 19 | 1020.3 |
| 20260903134133 | 52 | 250 | 0.0 | 1.0 | 0.00 | 0.00 | 0.00 | 18 | 1020.3 |
| 20260903133635 | 52 | 250 | 0.0 | 1.0 | 0.00 | 0.00 | 0.00 | 18 | 1020.3 |
| 20260903133153 | 52 | 250 | 0.0 | 1.0 | 0.00 | 0.00 | 0.00 | 17 | 1020.4 |
| 20260903132650 | 52 | 249 | 0.0 | 1.0 | 0.00 | 0.00 | 0.00 | 16 | 1020.4 |
| 20260903132148 | 52 | 250 | 0.0 | 1.0 | 0.00 | 0.00 | 0.00 | 16 | 1020.3 |
| 20260903131646 | 52 | 248 | 0.0 | 1.0 | 0.00 | 0.00 | 0.00 | 16 | 1020.3 |
| 20260903131143 | 52 | 256 | 0.0 | 1.0 | 0.00 | 0.00 | 0.00 | 16 | 1020.3 |
| 20260903130640 | 52 | 256 | 0.0 | 1.0 | 0.00 | 0.00 | 0.00 | 15 | 1020.2 |
| 20260903130138 | 52 | 256 | 0.0 | 1.0 | 0.00 | 0.00 | 0.00 | 15 | 1020.2 |
| 20260903125635 | 52 | 245 | 0.0 | 1.0 | 0.00 | 0.00 | 0.00 | 16 | 1020.3 |
| 20260903125133 | 52 | 252 | 0.0 | 1.0 | 0.00 | 0.00 | 0.00 | 16 | 1020.3 |
| 20260903124631 | 52 | 251 | 0.0 | 1.0 | 0.00 | 0.00 | 0.00 | 16 | 1020.3 |
| 20260903124149 | 52 | 248 | 0.0 | 1.0 | 0.00 | 0.00 | 0.00 | 16 | 1020.3 |
| 20260903123647 | 52 | 245 | 0.0 | 1.0 | 0.00 | 0.00 | 0.00 | 15 | 1020.3 |
| 20260903123145 | 52 | 245 | 0.0 | 1.0 | 0.00 | 0.00 | 0.00 | 15 | 1020.4 |
| 20260903122642 | 52 | 246 | 0.0 | 1.0 | 0.00 | 0.00 | 0.00 | 15 | 1020.3 |
| 20260903122141 | 51 | 246 | 0.0 | 1.0 | 0.00 | 0.00 | 0.00 | 15 | 1020.3 |
| 20260903121642 | 51 | 248 | 0.0 | 1.0 | 0.00 | 0.00 | 0.00 | 16 | 1020.2 |
| 20260903121140 | 51 | 248 | 0.0 | 1.0 | 0.00 | 0.00 | 0.00 | 15 | 1020.3 |
| 20260903120638 | 51 | 239 | 0.0 | 1.0 | 0.00 | 0.00 | 0.00 | 15 | 1020.2 |
| 20260903120136 | 51 | 223 | 0.0 | 1.0 | 0.00 | 0.00 | 0.00 | 15 | 1020.2 |
| 20260903115634 | 51 | 239 | 0.0 | 1.0 | 0.00 | 0.00 | 0.00 | 15 | 1020.2 |
| 20260903115132 | 51 | 141 | 0.0 | 1.0 | 0.00 | 0.00 | 0.00 | 15 | 1020.1 |
| 20260903114708 | 51 | 238 | 0.0 | 1.0 | 0.00 | 0.00 | 0.00 | 15 | 1020.2 |
| 20260903114144 | 51 | 236 | 0.0 | 1.0 | 0.00 | 0.00 | 0.00 | 15 | 1020.3 |
| 20260903113642 | 51 | 240 | 0.0 | 1.0 | 0.00 | 0.00 | 0.00 | 17 | 1020.4 |
| 20260903113140 | 51 | 226 | 0.0 | 1.0 | 0.00 | 0.00 | 0.00 | 15 | 1020.3 |
| 20260903112638 | 51 | 150 | 0.0 | 1.0 | 0.00 | 0.00 | 0.00 | 15 | 1020.3 |
| 20260903112136 | 51 | 127 | 0.0 | 1.0 | 0.00 | 0.00 | 0.00 | 15 | 1020.4 |
| 20260903111634 | 51 | 250 | 0.0 | 1.0 | 0.00 | 0.00 | 0.00 | 15 | 1020.3 |
| 20260903111132 | 51 | 250 | 0.0 | 1.0 | 0.00 | 0.00 | 0.00 | 15 | 1020.4 |
| 20260903110710 | 51 | 261 | 0.0 | 1.0 | 0.00 | 0.00 | 0.00 | 16 | 1020.4 |
| 20260903110147 | 51 | 242 | 0.0 | 1.0 | 0.00 | 0.00 | 0.00 | 16 | 1020.4 |
| 20260903105645 | 51 | 251 | 0.0 | 1.0 | 0.00 | 0.00 | 0.00 | 15 | 1020.4 |
| 20260903105148 | 52 | 205 | 0.0 | 1.0 | 0.00 | 0.00 | 0.00 | 16 | 1020.5 |
| 20260903104706 | 51 | 214 | 0.0 | 1.0 | 0.00 | 0.00 | 0.00 | 16 | 1020.5 |
| 20260903104141 | 52 | 250 | 0.0 | 0.0 | 0.00 | 0.00 | 0.00 | 16 | 1020.5 |
| 20260903103639 | 52 | 262 | 0.0 | 1.0 | 0.00 | 0.00 | 0.00 | 16 | 1020.6 |
| 20260903103137 | 52 | 262 | 0.0 | 1.0 | 0.00 | 0.00 | 0.00 | 16 | 1020.6 |
| 20260903102635 | 51 | 256 | 0.0 | 1.0 | 0.00 | 0.00 | 0.00 | 16 | 1020.6 |
| 20260903102134 | 51 | 246 | 0.0 | 1.0 | 0.00 | 0.00 | 0.00 | 17 | 1020.6 |
| 20260903101632 | 51 | 257 | 0.0 | 1.0 | 0.00 | 0.00 | 0.00 | 17 | 1020.7 |
| 20260903101210 | 51 | 6 | 0.0 | 1.0 | 0.00 | 0.00 | 0.00 | 17 | 1020.7 |
| 20260903100647 | 51 | 238 | 0.0 | 1.0 | 0.00 | 0.00 | 0.00 | 17 | 1020.7 |
| 20260903100144 | 51 | 243 | 0.0 | 1.0 | 0.00 | 0.00 | 0.00 | 17 | 1020.7 |
| 20260903095642 | 51 | 236 | 0.0 | 1.0 | 0.00 | 0.00 | 0.00 | 17 | 1020.7 |
| 20260903095200 | 51 | 75 | 0.0 | 1.0 | 0.00 | 0.00 | 0.00 | 16 | 1020.7 |
| 20260903094638 | 51 | 73 | 0.0 | 1.0 | 0.00 | 0.00 | 0.00 | 16 | 1020.7 |
| 20260903094136 | 51 | 255 | 0.0 | 1.0 | 0.00 | 0.00 | 0.00 | 16 | 1020.7 |
| 20260903093634 | 51 | 253 | 0.0 | 1.0 | 0.00 | 0.00 | 0.00 | 16 | 1020.8 |
| 20260903093151 | 51 | 264 | 0.0 | 1.0 | 0.00 | 0.00 | 0.00 | 16 | 1020.8 |
| 20260903092648 | 52 | 67 | 0.0 | 1.0 | 0.00 | 0.00 | 0.00 | 16 | 1020.9 |
| 20260903092146 | 52 | 67 | 0.0 | 1.0 | 0.00 | 0.00 | 0.00 | 15 | 1021.0 |
| 20260903091703 | 53 | 68 | 0.0 | 1.0 | 0.00 | 0.00 | 0.00 | 14 | 1021.0 |
| 20260903091144 | 53 | 68 | 0.0 | 1.0 | 0.00 | 0.00 | 0.00 | 14 | 1021.0 |
| 20260903090640 | 54 | 289 | 0.0 | 1.0 | 0.00 | 0.00 | 0.00 | 14 | 1021.1 |
| 20260903090133 | 55 | 283 | 0.0 | 3.0 | 0.00 | 0.00 | 0.00 | 13 | 1021.1 |
| 20260903085652 | 55 | 277 | 0.0 | 3.0 | 0.00 | 0.00 | 0.00 | 12 | 1021.2 |
| 20260903085143 | 55 | 252 | 1.0 | 3.0 | 0.00 | 0.00 | 0.00 | 13 | 1021.2 |
| 20260903084643 | 55 | 254 | 1.0 | 6.0 | 0.00 | 0.00 | 0.00 | 13 | 1021.3 |
| 20260903084136 | 55 | 252 | 1.0 | 6.0 | 0.00 | 0.00 | 0.00 | 13 | 1021.3 |
| 20260903083635 | 55 | 251 | 1.0 | 3.0 | 0.00 | 0.00 | 0.00 | 13 | 1021.3 |
| 20260903083155 | 55 | 255 | 1.0 | 3.0 | 0.00 | 0.00 | 0.00 | 13 | 1021.2 |
| 20260903082641 | 55 | 264 | 1.0 | 2.0 | 0.00 | 0.00 | 0.00 | 13 | 1021.3 |
| 20260903082139 | 55 | 246 | 1.0 | 3.0 | 0.00 | 0.00 | 0.00 | 14 | 1021.4 |
| 20260903081651 | 54 | 269 | 0.0 | 3.0 | 0.00 | 0.00 | 0.00 | 14 | 1021.4 |
| 20260903081150 | 54 | 176 | 0.0 | 2.0 | 0.00 | 0.00 | 0.00 | 14 | 1021.4 |
| 20260903080637 | 54 | 283 | 0.0 | 3.0 | 0.00 | 0.00 | 0.00 | 14 | 1021.5 |
| 20260903080136 | 54 | 268 | 1.0 | 3.0 | 0.00 | 0.00 | 0.00 | 15 | 1021.5 |
| 20260903075634 | 53 | 255 | 1.0 | 2.0 | 0.00 | 0.00 | 0.00 | 17 | 1021.5 |
| 20260903075152 | 53 | 255 | 0.0 | 2.0 | 0.00 | 0.00 | 0.00 | 17 | 1021.5 |
| 20260903074710 | 52 | 246 | 0.0 | 1.0 | 0.00 | 0.00 | 0.00 | 19 | 1021.5 |
| 20260903074145 | 51 | 247 | 0.0 | 1.0 | 0.00 | 0.00 | 0.00 | 19 | 1021.5 |
| 20260903073643 | 50 | 257 | 0.0 | 1.0 | 0.00 | 0.00 | 0.00 | 23 | 1021.5 |
| 20260903073142 | 51 | 257 | 0.0 | 1.0 | 0.00 | 0.00 | 0.00 | 25 | 1021.6 |
| 20260903072700 | 51 | 250 | 0.0 | 1.0 | 0.00 | 0.00 | 0.00 | 27 | 1021.6 |
| 20260903072137 | 51 | 250 | 0.0 | 1.0 | 0.00 | 0.00 | 0.00 | 28 | 1021.6 |
| 20260903071635 | 51 | 250 | 0.0 | 1.0 | 0.00 | 0.00 | 0.00 | 28 | 1021.7 |
| 20260903071153 | 51 | 248 | 0.0 | 1.0 | 0.00 | 0.00 | 0.00 | 28 | 1021.7 |
| 20260903070651 | 51 | 255 | 0.0 | 1.0 | 0.00 | 0.00 | 0.00 | 28 | 1021.7 |
| 20260903070149 | 51 | 258 | 0.0 | 1.0 | 0.00 | 0.00 | 0.00 | 29 | 1021.7 |
| 20260903065646 | 50 | 259 | 0.0 | 1.0 | 0.00 | 0.00 | 0.00 | 30 | 1021.7 |
| 20260903065144 | 50 | 259 | 0.0 | 1.0 | 0.00 | 0.00 | 0.00 | 31 | 1021.8 |
| 20260903064640 | 50 | 259 | 0.0 | 1.0 | 0.00 | 0.00 | 0.00 | 31 | 1021.8 |
| 20260903064139 | 50 | 259 | 0.0 | 1.0 | 0.00 | 0.00 | 0.00 | 32 | 1021.8 |
| 20260903063657 | 49 | 259 | 0.0 | 1.0 | 0.00 | 0.00 | 0.00 | 33 | 1021.8 |
| 20260903063133 | 49 | 259 | 0.0 | 1.0 | 0.00 | 0.00 | 0.00 | 33 | 1021.9 |
| 20260903062651 | 48 | 259 | 0.0 | 1.0 | 0.00 | 0.00 | 0.00 | 36 | 1021.9 |
| 20260903062148 | 48 | 259 | 0.0 | 0.0 | 0.00 | 0.00 | 0.00 | 38 | 1021.9 |
| 20260903061706 | 48 | 259 | 0.0 | 0.0 | 0.00 | 0.00 | 0.00 | 39 | 1021.9 |
| 20260903061142 | 48 | 259 | 0.0 | 0.0 | 0.00 | 0.00 | 0.00 | 39 | 1022.0 |
| 20260903060640 | 48 | 259 | 0.0 | 0.0 | 0.00 | 0.00 | 0.00 | 40 | 1022.0 |
| 20260903060138 | 48 | 259 | 0.0 | 0.0 | 0.00 | 0.00 | 0.00 | 41 | 1022.0 |
| 20260903055642 | 48 | 259 | 0.0 | 0.0 | 0.00 | 0.00 | 0.00 | 40 | 1022.1 |
| 20260903055139 | 49 | 259 | 0.0 | 0.0 | 0.00 | 0.00 | 0.00 | 41 | 1022.0 |
| 20260903054655 | 49 | 259 | 0.0 | 0.0 | 0.00 | 0.00 | 0.00 | 40 | 1022.1 |
| 20260903054213 | 49 | 259 | 0.0 | 0.0 | 0.00 | 0.00 | 0.00 | 40 | 1022.2 |
| 20260903053650 | 50 | 259 | 0.0 | 0.0 | 0.00 | 0.00 | 0.00 | 38 | 1022.2 |
| 20260903053149 | 50 | 260 | 0.0 | 1.0 | 0.00 | 0.00 | 0.00 | 38 | 1022.2 |
| 20260903052707 | 50 | 261 | 0.0 | 1.0 | 0.00 | 0.00 | 0.00 | 35 | 1022.1 |
| 20260903052146 | 50 | 260 | 0.0 | 0.0 | 0.00 | 0.00 | 0.00 | 32 | 1022.1 |
| 20260903051645 | 50 | 260 | 0.0 | 0.0 | 0.00 | 0.00 | 0.00 | 31 | 1022.1 |
| 20260903051134 | 50 | 260 | 0.0 | 0.0 | 0.00 | 0.00 | 0.00 | 31 | 1022.2 |
| 20260903050639 | 50 | 262 | 0.0 | 1.0 | 0.00 | 0.00 | 0.00 | 30 | 1022.1 |
| 20260903050137 | 50 | 262 | 0.0 | 1.0 | 0.00 | 0.00 | 0.00 | 29 | 1022.1 |
| 20260903045647 | 50 | 243 | 0.0 | 0.0 | 0.00 | 0.00 | 0.00 | 29 | 1022.1 |
| 20260903045146 | 50 | 243 | 0.0 | 1.0 | 0.00 | 0.00 | 0.00 | 31 | 1022.1 |
| 20260903044646 | 51 | 243 | 0.0 | 1.0 | 0.00 | 0.00 | 0.00 | 33 | 1022.1 |
| 20260903044152 | 51 | 243 | 0.0 | 1.0 | 0.00 | 0.00 | 0.00 | 33 | 1022.1 |
| 20260903043651 | 50 | 227 | 0.0 | 0.0 | 0.00 | 0.00 | 0.00 | 36 | 1022.1 |
| 20260903043149 | 50 | 227 | 0.0 | 0.0 | 0.00 | 0.00 | 0.00 | 41 | 1022.1 |
| 20260903042648 | 50 | 227 | 0.0 | 0.0 | 0.00 | 0.00 | 0.00 | 41 | 1022.1 |
| 20260903042141 | 50 | 227 | 0.0 | 1.0 | 0.00 | 0.00 | 0.00 | 42 | 1022.1 |
| 20260903041639 | 50 | 229 | 0.0 | 1.0 | 0.00 | 0.00 | 0.00 | 41 | 1022.0 |
| 20260903041138 | 50 | 229 | 0.0 | 1.0 | 0.00 | 0.00 | 0.00 | 43 | 1022.0 |
| 20260903040657 | 50 | 229 | 0.0 | 0.0 | 0.00 | 0.00 | 0.00 | 44 | 1021.9 |
| 20260903040134 | 51 | 229 | 0.0 | 0.0 | 0.00 | 0.00 | 0.00 | 45 | 1021.9 |
| 20260903035654 | 51 | 229 | 0.0 | 1.0 | 0.00 | 0.00 | 0.00 | 44 | 1021.9 |
| 20260903035151 | 51 | 229 | 0.0 | 1.0 | 0.00 | 0.00 | 0.00 | 43 | 1021.9 |